This is the latest recevied weather packets stored in our database for station/object K7DC. If no packets are shown the sender has not sent any weather packets the latest 10 day(s).
| Time | Temp. | Humidity | Pressure | Rain* | Wind** | Luminosity | Snow |
|---|---|---|---|---|---|---|---|
| 1788190733 | 26.67° C | 59% | 1017.6 hPa | 0 mm | - | 240 W/m² | - |
| 1788190429 | 25.56° C | 61% | 1017.4 hPa | 0 mm | - | 237 W/m² | - |
| 1788190125 | 25.56° C | 62% | 1017.3 hPa | 0 mm | - | 151 W/m² | - |
| 1788189821 | 25.56° C | 63% | 1017.3 hPa | 0 mm | - | 194 W/m² | - |
| 1788189521 | 26.67° C | 60% | 1017.6 hPa | 0 mm | - | 233 W/m² | - |
| 1788189219 | 26.11° C | 61% | 1017.7 hPa | 0 mm | - | 174 W/m² | - |
| 1788188915 | 26.11° C | 62% | 1017.7 hPa | 0 mm | - | 268 W/m² | - |
| 1788188611 | 26.11° C | 64% | 1017.8 hPa | 0 mm | - | 291 W/m² | - |
| 1788188309 | 25.56° C | 65% | 1018.1 hPa | 0 mm | - | 288 W/m² | - |
| 1788188006 | 25.56° C | 67% | 1018 hPa | 0 mm | - | 213 W/m² | - |
| 1788187701 | 25° C | 69% | 1017.9 hPa | 0 mm | - | 269 W/m² | - |
| 1788187397 | 24.44° C | 71% | 1018 hPa | 0 mm | - | 251 W/m² | - |
| 1788187097 | 23.89° C | 73% | 1017.8 hPa | 0 mm | - | 231 W/m² | - |
| 1788186792 | 23.33° C | 75% | 1017.9 hPa | 0 mm | - | 127 W/m² | - |
| 1788186487 | 22.78° C | 77% | 1017.9 hPa | 0 mm | - | 69 W/m² | - |
| 1788186183 | 22.22° C | 80% | 1017.8 hPa | 0 mm | - | 128 W/m² | - |
| 1788185883 | 21.67° C | 81% | 1017.8 hPa | 0 mm | - | 58 W/m² | - |
| 1788185578 | 21.67° C | 81% | 1017.8 hPa | 0 mm | - | 58 W/m² | - |
| 1788185272 | 21.67° C | 83% | 1017.8 hPa | 0 mm | - | 58 W/m² | - |
| 1788184967 | 21.67° C | 83% | 1018 hPa | 0 mm | - | 55 W/m² | - |
| 1788184664 | 21.11° C | 84% | 1018.1 hPa | 0 mm | - | 56 W/m² | - |
| 1788184360 | 21.11° C | 85% | 1017.7 hPa | 0 mm | - | 52 W/m² | - |
| 1788184055 | 21.11° C | 85% | 1018.1 hPa | 0 mm | - | 46 W/m² | - |
| 1788183752 | 21.11° C | 86% | 1017.9 hPa | 0 mm | - | 39 W/m² | - |
| 1788183451 | 21.11° C | 86% | 1017.8 hPa | 0 mm | - | 34 W/m² | - |
* Rain latest hour (hover to see other rain measurements)
** Current wind speed in m/s (hover to see current wind gust speed)